Location: *
(35.2348°S, 91.3916°E)
Time: 12:28:26
(UTC+00:00)

Cosmos 2184 Rocket - Pass Details

Date: 23 October 2019
Orbit: 960 x 1001 km, 82.9° (Epoch: 17 November)

Event Time Altitude Azimuth Distance (km) Brightness Sun altitude
Rises 21:31:30 0° 196° (SSW) 3,677 7.2 -17.8°
Reaches altitude 10° 21:34:09 10° 203° (SSW) 2,722 6.4 -17.4°
Maximum altitude 21:39:51 39° 269° (W) 1,407 4.4 -16.3°
Enters shadow 21:44:13 16° 330° (NNW) 2,262 5.4 -15.6°
